{"data":{"norad_id":56730,"intl_designator":"2023-068W","name":"IRIDIUM 179","alt_names":[],"object_type":"PAYLOAD","status":"ACTIVE","operator":null,"country":"US","launch_date":"2023-05-20","launch_site_code":"AFWTR","launch_vehicle":null,"mission":null,"orbit_class":"UNKNOWN","rcs_meters":null,"size_class":null,"mass_kg":null,"dimensions":null,"purposes":["comms"],"wikipedia_slug":null,"has_3d_model":false,"image_url":null,"decayed_at":null,"tle_current":{"epoch":"2026-05-25T04:28:38.555040Z","epoch_age_seconds":55618,"freshness":"FRESH","line1":"1 56730U 23068W   26145.18655735  .00000918  00000+0  11732-3 0  9992","line2":"2 56730  86.6795  43.8816 0002360  81.8721 278.2769 14.80239201162967","mean_motion":14.80239201,"eccentricity":0.000236,"inclination_deg":86.6795,"raan_deg":43.8816,"arg_perigee_deg":81.8721,"mean_anomaly_deg":278.2769,"bstar":0.00011732,"rev_number":16296,"period_min":97.281574425754,"perigee_km":626.9156124617,"apogee_km":630.2227777858,"semimajor_km":7006.7061951238,"source":"CELESTRAK","updated_at":"2026-05-25T13:38:14.844454Z"}}}